This is the latest recevied weather packets stored in our database for station/object OK2ILA-13. If no packets are shown the sender has not sent any weather packets the latest 10 day(s).
| Time | Temp. | Humidity | Pressure | Rain* | Wind** | Luminosity | Snow |
|---|---|---|---|---|---|---|---|
| 1777300522 | 12.22° C | 32% | 1020.7 hPa | - | - | - | - |
| 1777299922 | 12.78° C | 31% | 1020.7 hPa | - | - | - | - |
| 1777299322 | 12.78° C | 31% | 1020.7 hPa | - | - | - | - |
| 1777298722 | 13.33° C | 32% | 1020.8 hPa | - | - | - | - |
| 1777298123 | 12.78° C | 33% | 1020.8 hPa | - | - | - | - |
| 1777297523 | 12.78° C | 33% | 1020.9 hPa | - | - | - | - |
| 1777296924 | 12.78° C | 30% | 1021.1 hPa | - | - | - | - |
| 1777295724 | 14.44° C | 29% | 1021.2 hPa | - | - | - | - |
| 1777295125 | 13.89° C | 29% | 1021.3 hPa | - | - | - | - |
| 1777294525 | 13.33° C | 29% | 1021.4 hPa | - | - | - | - |
| 1777293326 | 13.89° C | 29% | 1021.5 hPa | - | - | - | - |
| 1777292725 | 13.33° C | 30% | 1021.5 hPa | - | - | - | - |
| 1777292126 | 13.33° C | 31% | 1021.6 hPa | - | - | - | - |
| 1777291526 | 13.33° C | 30% | 1021.6 hPa | - | - | - | - |
| 1777290326 | 11.67° C | 31% | 1021.9 hPa | - | - | - | - |
| 1777289727 | 11.67° C | 29% | 1021.9 hPa | - | - | - | - |
| 1777289127 | 11.11° C | 31% | 1022.1 hPa | - | - | - | - |
| 1777288527 | 11.67° C | 31% | 1021.9 hPa | - | - | - | - |
| 1777287927 | 11.11° C | 30% | 1022.1 hPa | - | - | - | - |
| 1777287327 | 11.11° C | 30% | 1022.2 hPa | - | - | - | - |
| 1777286727 | 11.11° C | 30% | 1022.3 hPa | - | - | - | - |
| 1777286127 | 11.11° C | 29% | 1022.3 hPa | - | - | - | - |
| 1777285527 | 11.67° C | 30% | 1022.3 hPa | - | - | - | - |
| 1777284928 | 12.78° C | 31% | 1022.4 hPa | - | - | - | - |
| 1777284328 | 13.33° C | 31% | 1022.5 hPa | - | - | - | - |
* Rain since midnight (hover to see other rain measurements)
** Current wind speed in m/s (hover to see current wind gust speed)